Miscellaneous Local Product
Issued by NWS Hastings, NE

Home | Current Version | Previous Version | Text Only | Print | Product List | Glossary On
Versions: 1 2 3 4 5 6 7 8 9 10 11 12 13 14 15 16 17 18 19 20 21 22 23 24 25 26 27 28 29 30 31 32 33 34 35 36 37 38 39 40 41 42 43 44 45 46 47 48 49 50
000
AXUS43 KGID 231402
MISGRI

GID CWA HOURLY WEATHER ROUNDUP
NATIONAL WEATHER SERVICE HASTINGS NE
900 AM CDT SUN JUL 23 2017

NOTE: "FAIR" INDICATES FEW OR NO CLOUDS BELOW 12,000 FEET WITH NO
SIGNIFICANT WEATHER AND/OR OBSTRUCTIONS TO VISIBILITY.

...SOUTH CENTRAL NEBRASKA...

CITY           SKY/WX    TMP DP  RH WIND       PRES   REMARKS
GRAND ISLAND   SUNNY     73  68  84 S6        30.03R
HASTINGS       SUNNY     73  67  81 W5        30.05R
KEARNEY        SUNNY     72  65  78 N5        30.05S
ORD            SUNNY     69  63  81 NW8       30.02R
YORK           SUNNY     72  68  88 CALM      30.02S
AURORA         SUNNY     72  69  89 SW3       30.03S
LEXINGTON      SUNNY     68  64  86 W3        30.07R
HOLDREGE       SUNNY     71  64  80 NW3       30.06R
HEBRON         SUNNY     78  71  81 NW5       30.00S

...NEBRASKA PANHANDLE...

CITY           SKY/WX    TMP DP  RH WIND       PRES   REMARKS
CHADRON        SUNNY     65  48  54 SW3       30.11S
ALLIANCE       SUNNY     71  52  50 CALM      30.14R
SCOTTSBLUFF    SUNNY     68  53  58 E3        30.14R
SIDNEY         SUNNY     76  47  35 SW8       30.17R

...WESTERN AND NORTH CENTRAL NEBRASKA...

CITY           SKY/WX    TMP DP  RH WIND       PRES   REMARKS
VALENTINE      SUNNY     72  48  42 CALM      30.10R
AINSWORTH      SUNNY     69  57  65 CALM      30.09R
ONEILL         MOSUNNY   70  62  76 N7        30.05R
BROKEN BOW     SUNNY     72  62  71 N8        30.06R
IMPERIAL       SUNNY     71  55  56 NW6       30.11R
NORTH PLATTE   SUNNY     68  56  65 CALM      30.09R
MCCOOK         SUNNY     68  57  68 NW5       30.07S

...EASTERN NEBRASKA...

CITY           SKY/WX    TMP DP  RH WIND       PRES   REMARKS
NORFOLK        SUNNY     71  64  78 N3        29.99R
SO SIOUX CITY  SUNNY     75  66  73 N6        29.97R
TEKAMAH        SUNNY     75  68  78 CALM      29.96R
COLUMBUS       SUNNY     73  66  78 CALM      29.99S
ALBION         SUNNY     70  65  82 NW3       30.01R
OMAHA EPPLEY   CLOUDY    71  69  93 N3        29.98R FOG
OFFUTT AFB     SUNNY     73  72  98 NW6       29.97R FOG
MILLARD        SUNNY     78  72  83 CALM      29.98R
LINCOLN        SUNNY     75  69  81 S3        29.99S
NEBRASKA CITY  SUNNY     76  76 100 CALM      29.97S FOG
BEATRICE       SUNNY     77  72  84 NW7       29.98F
FALLS CITY     SUNNY     78  71  79 W8        29.95R

...NORTHERN KANSAS...

CITY           SKY/WX    TMP DP  RH WIND       PRES   REMARKS
GOODLAND       MOSUNNY   71  60  68 N3        30.12S
HILL CITY      FOG       73  73 100 NW5       30.05S VSB 1
NORTON         SUNNY     73  66  78 CALM      30.06R
PHILLIPSBURG   CLOUDY    72  72 100 NW8       30.03R FOG
SMITH CENTER   SUNNY     73  68  83 NW5       30.02R
HAYS           SUNNY     79  69  71 N6        30.03R
RUSSELL        SUNNY     78  68  71 N6        30.01R
CONCORDIA      SUNNY     77  69  76 NW6       29.99R
SALINA         SUNNY     78  70  76 N6        29.99F
TOPEKA         PTSUNNY   76  71  85 VRB5      29.94S



USA.gov is the U.S. government's official web portal to all federal, state and local government web resources and services.